Crane Lake, MN

5:16 PM CST on December 06, 2016 (GMT -0600)
Crane Lake

Weather History for KCDD - March, 2012

Change the Weather History Date:

Sunday, March 18, 2012

  Actual Average Record
Temperature  
Mean Temperature 58 °F -  
Max Temperature 75 °F 33 °F 75 °F (2012)
Min Temperature 41 °F 10 °F -9 °F (1997)
Degree Days  
Heating Degree Days 7    
Growing Degree Days 8 (Base 50)    
Moisture  
Dew Point 52 °F    
Average Humidity 74    
Maximum Humidity 100    
Minimum Humidity 47    
Precipitation  
Precipitation 0.00 in - - ()
Sea Level Pressure  
Sea Level Pressure 29.72 in    
Wind  
Wind Speed 4 mph (SSE)    
Max Wind Speed 14 mph    
Max Gust Speed 21 mph    
Visibility 9 miles    
Events      
Averages and records for this station are not official NWS values.
T = Trace of Precipitation, MM = Missing Value Source: NWS Daily Summary

Daily Weather History Graph

Daily Weather History Graph

Search for Another Location

Airport or City:

Trip Planner

Search our weather history database for the weather conditions in past years. The results will help you decide how hot, cold, wet, or windy it might be!

Date:

Astronomy

Mar. 18, 2012 Rise Set
Actual Time 7:15 AM CDT 7:20 PM CDT
Civil Twilight 6:44 AM CDT 7:51 PM CDT
Nautical Twilight 6:08 AM CDT 8:28 PM CDT
Astronomical Twilight 5:30 AM CDT 9:06 PM CDT
Moon 5:11 AM CDT (3/18) 3:33 PM CDT (3/18)
Length of Visible Light 13h 06m
Length of Day
12h 04m
Waning Crescent, 15% of the Moon is Illuminated
Mar 18
Waning Crescent
Mar 22
New
Mar 30
First Quarter
Apr 6
Full
Apr 13
Last Quarter

Hourly Weather History & Observations

Time (CDT) Temp. Dew Point Humidity Pressure Visibility Wind Dir Wind Speed Gust Speed Precip Events Conditions
12:14 AM 46.4 °F 44.6 °F 93% 29.76 in 10.0 mi Calm Calm - N/A   Scattered Clouds
12:34 AM 46.4 °F 44.6 °F 93% 29.76 in 7.0 mi Calm Calm - N/A   Scattered Clouds
12:55 AM 44.6 °F 44.6 °F 100% 29.76 in 7.0 mi Calm Calm - N/A   Scattered Clouds
1:14 AM 46.4 °F 44.6 °F 93% 29.75 in 5.0 mi Calm Calm - N/A   Clear
1:35 AM 46.4 °F 44.6 °F 93% 29.75 in 5.0 mi Calm Calm - N/A   Clear
1:54 AM 44.6 °F 42.8 °F 93% 29.75 in 5.0 mi Calm Calm - N/A   Clear
2:15 AM 44.6 °F 42.8 °F 93% 29.75 in 5.0 mi Calm Calm - N/A   Clear
2:34 AM 42.8 °F 42.8 °F 100% 29.74 in 2.0 mi Calm Calm - N/A   Clear
2:54 AM 42.8 °F 41.0 °F 93% 29.74 in 4.0 mi Calm Calm - N/A   Clear
3:14 AM 42.8 °F 41.0 °F 93% 29.74 in 1.5 mi Calm Calm - N/A   Clear
3:34 AM 42.8 °F 41.0 °F 93% 29.73 in 1.5 mi Calm Calm - N/A   Clear
3:54 AM 42.8 °F 41.0 °F 93% 29.73 in 3.0 mi Calm Calm - N/A   Clear
4:34 AM 41.0 °F 39.2 °F 93% 29.73 in 4.0 mi Calm Calm - N/A   Clear
4:54 AM 41.0 °F 39.2 °F 93% 29.73 in 7.0 mi Calm Calm - N/A   Clear
5:14 AM 44.6 °F 44.6 °F 100% 29.73 in 7.0 mi Calm Calm - N/A   Clear
5:34 AM 48.2 °F 48.2 °F 100% 29.73 in 5.0 mi South 3.5 mph - N/A   Clear
5:54 AM 55.4 °F 53.6 °F 94% 29.73 in 10.0 mi SSE 3.5 mph - N/A   Scattered Clouds
6:15 AM 55.4 °F 53.6 °F 94% 29.73 in 10.0 mi SSE 3.5 mph - N/A   Clear
6:34 AM 55.4 °F 53.6 °F 94% 29.73 in 10.0 mi Calm Calm - N/A   Scattered Clouds
6:54 AM 55.4 °F 53.6 °F 94% 29.73 in 10.0 mi Calm Calm - N/A   Clear
7:14 AM 55.4 °F 51.8 °F 88% 29.74 in 10.0 mi South 3.5 mph - N/A   Clear
7:34 AM 55.4 °F 53.6 °F 94% 29.74 in 10.0 mi SSE 3.5 mph - N/A   Scattered Clouds
7:55 AM 55.4 °F 53.6 °F 94% 29.74 in 10.0 mi SSE 4.6 mph - N/A   Clear
8:14 AM 57.2 °F 55.4 °F 94% 29.74 in 10.0 mi SSE 4.6 mph - N/A   Clear
8:34 AM 57.2 °F 55.4 °F 94% 29.74 in 10.0 mi SSE 10.4 mph - N/A   Clear
8:54 AM 59.0 °F 55.4 °F 88% 29.74 in 10.0 mi SSE 5.8 mph - N/A   Clear
9:14 AM 60.8 °F 55.4 °F 82% 29.74 in 10.0 mi SSE 5.8 mph - N/A   Clear
9:34 AM 62.6 °F 57.2 °F 82% 29.74 in 10.0 mi SSE 8.1 mph - N/A   Clear
9:54 AM 62.6 °F 57.2 °F 82% 29.74 in 10.0 mi SSE 5.8 mph - N/A   Clear
10:15 AM 64.4 °F 57.2 °F 77% 29.74 in 10.0 mi South 9.2 mph 16.1 mph N/A   Clear
10:34 AM 66.2 °F 57.2 °F 73% 29.74 in 10.0 mi South 9.2 mph 16.1 mph N/A   Clear
10:54 AM 66.2 °F 57.2 °F 73% 29.74 in 10.0 mi SSE 5.8 mph - N/A   Clear
11:14 AM 68.0 °F 57.2 °F 68% 29.74 in 10.0 mi South 9.2 mph - N/A   Clear
11:35 AM 69.8 °F 57.2 °F 64% 29.73 in 10.0 mi South 6.9 mph - N/A   Clear
11:54 AM 69.8 °F 57.2 °F 64% 29.73 in 10.0 mi South 8.1 mph - N/A   Clear
12:14 PM 71.6 °F 57.2 °F 60% 29.73 in 10.0 mi SSE 5.8 mph - N/A   Clear
12:35 PM 73.4 °F 55.4 °F 53% 29.72 in 10.0 mi South 12.7 mph 19.6 mph N/A   Clear
12:54 PM 73.4 °F 55.4 °F 53% 29.71 in 10.0 mi SSE 5.8 mph 17.3 mph N/A   Clear
1:15 PM 73.4 °F 55.4 °F 53% 29.71 in 10.0 mi South 10.4 mph 18.4 mph N/A   Scattered Clouds
1:34 PM 75.2 °F 55.4 °F 50% 29.71 in 10.0 mi SSE 12.7 mph 20.7 mph N/A   Clear
1:55 PM 73.4 °F 55.4 °F 53% 29.71 in 10.0 mi SSE 8.1 mph 16.1 mph N/A   Scattered Clouds
2:14 PM 73.4 °F 53.6 °F 50% 29.70 in 10.0 mi South 13.8 mph 18.4 mph N/A   Clear
2:34 PM 73.4 °F 53.6 °F 50% 29.70 in 10.0 mi South 12.7 mph 18.4 mph N/A   Clear
2:55 PM 73.4 °F 53.6 °F 50% 29.70 in 10.0 mi SSE 8.1 mph 17.3 mph N/A   Clear
3:14 PM 73.4 °F 53.6 °F 50% 29.69 in 10.0 mi SSE 9.2 mph 17.3 mph N/A   Clear
3:54 PM 75.2 °F 53.6 °F 47% 29.69 in 10.0 mi South 10.4 mph 18.4 mph N/A   Clear
4:14 PM 75.2 °F 53.6 °F 47% 29.68 in 10.0 mi South 8.1 mph 20.7 mph N/A   Clear
4:34 PM 75.2 °F 53.6 °F 47% 29.68 in 10.0 mi SSE 5.8 mph - N/A   Clear
4:54 PM 75.2 °F 53.6 °F 47% 29.67 in 10.0 mi SSE 10.4 mph - N/A   Clear
5:15 PM 75.2 °F 53.6 °F 47% 29.67 in 10.0 mi SE 6.9 mph - N/A   Clear
5:35 PM 73.4 °F 53.6 °F 50% 29.67 in 10.0 mi SSE 9.2 mph 19.6 mph N/A   Clear
5:55 PM 73.4 °F 53.6 °F 50% 29.67 in 10.0 mi SE 8.1 mph 20.7 mph N/A   Clear
6:14 PM 73.4 °F 53.6 °F 50% 29.67 in 10.0 mi SSE 10.4 mph - N/A   Clear
6:34 PM 71.6 °F 53.6 °F 53% 29.67 in 10.0 mi SSE 10.4 mph - N/A   Clear
6:54 PM 69.8 °F 53.6 °F 56% 29.68 in 10.0 mi SSE 6.9 mph - N/A   Clear
7:14 PM 68.0 °F 53.6 °F 60% 29.68 in 10.0 mi SSE 6.9 mph - N/A   Clear
7:54 PM 66.2 °F 53.6 °F 64% 29.68 in 10.0 mi SSE 4.6 mph - N/A   Clear
8:14 PM 64.4 °F 53.6 °F 68% 29.68 in 10.0 mi SSE 5.8 mph - N/A   Clear
8:54 PM 64.4 °F 53.6 °F 68% 29.68 in 10.0 mi SSE 4.6 mph - N/A   Clear
9:14 PM 64.4 °F 53.6 °F 68% 29.68 in 10.0 mi SE 4.6 mph - N/A   Clear
9:34 PM 62.6 °F 53.6 °F 72% 29.69 in 10.0 mi SSE 8.1 mph - N/A   Clear
9:55 PM 62.6 °F 53.6 °F 72% 29.69 in 10.0 mi SSE 5.8 mph - N/A   Clear
10:34 PM 60.8 °F 53.6 °F 77% 29.69 in 10.0 mi SSE 3.5 mph - N/A   Scattered Clouds
10:54 PM 60.8 °F 51.8 °F 72% 29.68 in 10.0 mi Calm Calm - N/A   Clear
11:14 PM 60.8 °F 51.8 °F 72% 29.69 in 10.0 mi SSE 5.8 mph - N/A   Clear
11:34 PM 60.8 °F 51.8 °F 72% 29.68 in 7.0 mi SSE 4.6 mph - N/A   Clear
11:54 PM 60.8 °F 51.8 °F 72% 29.68 in 7.0 mi SSE 5.8 mph - N/A   Clear